| time (UTC) | temp F | wind direction | speed MPH | gust MPH | rain 1hr in | rain 24hr in | rain mn in | humidity % | barometer mb |
| 20260906193635 | 60 | 95 | 4.0 | 4.0 | 0.00 | 0.00 | 0.00 | 62 | 1022.4 |
| 20260906192134 | 60 | 95 | 4.0 | 4.0 | 0.00 | 0.00 | 0.00 | 62 | 1022.4 |
| 20260906190634 | 60 | 104 | 4.0 | 6.0 | 0.00 | 0.00 | 0.00 | 61 | 1022.6 |
| 20260906185133 | 62 | 107 | 4.0 | 6.0 | 0.00 | 0.00 | 0.00 | 62 | 1022.5 |
| 20260906183633 | 62 | 110 | 2.0 | 4.0 | 0.00 | 0.00 | 0.00 | 63 | 1022.6 |
| 20260906182133 | 64 | 105 | 2.0 | 4.0 | 0.00 | 0.00 | 0.00 | 59 | 1022.9 |
| 20260906180633 | 68 | 98 | 2.0 | 6.0 | 0.00 | 0.00 | 0.00 | 51 | 1023.1 |
| 20260906175133 | 68 | 112 | 2.0 | 6.0 | 0.00 | 0.00 | 0.00 | 48 | 1023.1 |
| 20260906173633 | 68 | 103 | 2.0 | 4.0 | 0.00 | 0.00 | 0.00 | 49 | 1023.1 |
| 20260906172133 | 68 | 125 | 4.0 | 6.0 | 0.00 | 0.00 | 0.00 | 49 | 1023.2 |
| 20260906170632 | 68 | 125 | 4.0 | 6.0 | 0.00 | 0.00 | 0.00 | 49 | 1023.2 |
| 20260906165132 | 68 | 133 | 4.0 | 6.0 | 0.00 | 0.00 | 0.00 | 48 | 1023.3 |
| 20260906163633 | 69 | 138 | 4.0 | 8.0 | 0.00 | 0.00 | 0.00 | 43 | 1023.4 |
| 20260906162132 | 69 | 130 | 4.0 | 8.0 | 0.00 | 0.00 | 0.00 | 45 | 1023.5 |
| 20260906160631 | 68 | 136 | 4.0 | 8.0 | 0.00 | 0.00 | 0.00 | 47 | 1023.6 |
| 20260906155131 | 69 | 154 | 4.0 | 8.0 | 0.00 | 0.00 | 0.00 | 47 | 1023.7 |
| 20260906153630 | 69 | 146 | 6.0 | 13.0 | 0.00 | 0.00 | 0.00 | 46 | 1023.9 |
| 20260906152130 | 69 | 148 | 4.0 | 8.0 | 0.00 | 0.00 | 0.00 | 46 | 1024.0 |
| 20260906150630 | 71 | 135 | 6.0 | 11.0 | 0.00 | 0.00 | 0.00 | 46 | 1024.3 |
| 20260906145129 | 69 | 121 | 6.0 | 11.0 | 0.00 | 0.00 | 0.00 | 45 | 1024.3 |
| 20260906143629 | 71 | 136 | 6.0 | 11.0 | 0.00 | 0.00 | 0.00 | 46 | 1024.4 |
| 20260906142128 | 69 | 171 | 6.0 | 11.0 | 0.00 | 0.00 | 0.00 | 45 | 1024.6 |
| 20260906140629 | 69 | 183 | 6.0 | 11.0 | 0.00 | 0.00 | 0.00 | 42 | 1024.9 |
| 20260906135128 | 69 | 176 | 4.0 | 8.0 | 0.00 | 0.00 | 0.00 | 48 | 1024.9 |
| 20260906133628 | 69 | 162 | 6.0 | 11.0 | 0.00 | 0.00 | 0.00 | 49 | 1025.2 |
| 20260906132127 | 69 | 161 | 4.0 | 13.0 | 0.00 | 0.00 | 0.00 | 47 | 1025.2 |
| 20260906130627 | 69 | 156 | 6.0 | 11.0 | 0.00 | 0.00 | 0.00 | 50 | 1025.4 |
| 20260906125127 | 68 | 160 | 6.0 | 11.0 | 0.00 | 0.00 | 0.00 | 51 | 1025.4 |
| 20260906123628 | 68 | 197 | 4.0 | 15.0 | 0.00 | 0.00 | 0.00 | 50 | 1025.6 |
| 20260906122127 | 68 | 183 | 6.0 | 15.0 | 0.00 | 0.00 | 0.00 | 49 | 1025.8 |
| 20260906120627 | 68 | 161 | 6.0 | 13.0 | 0.00 | 0.00 | 0.00 | 49 | 1025.9 |
| 20260906115126 | 68 | 166 | 6.0 | 11.0 | 0.00 | 0.00 | 0.00 | 48 | 1026.0 |
| 20260906113627 | 68 | 154 | 6.0 | 13.0 | 0.00 | 0.00 | 0.00 | 50 | 1026.3 |
| 20260906112126 | 68 | 146 | 6.0 | 11.0 | 0.00 | 0.00 | 0.00 | 48 | 1026.4 |
| 20260906110625 | 66 | 176 | 4.0 | 8.0 | 0.00 | 0.00 | 0.00 | 53 | 1026.5 |
| 20260906105125 | 66 | 178 | 2.0 | 8.0 | 0.00 | 0.00 | 0.00 | 52 | 1026.7 |
| 20260906103625 | 66 | 172 | 4.0 | 8.0 | 0.00 | 0.00 | 0.00 | 52 | 1026.8 |
| 20260906102124 | 66 | 257 | 2.0 | 8.0 | 0.00 | 0.00 | 0.00 | 56 | 1026.9 |
| 20260906100624 | 64 | 220 | 4.0 | 11.0 | 0.00 | 0.00 | 0.00 | 57 | 1027.0 |
| 20260906095123 | 64 | 177 | 4.0 | 11.0 | 0.00 | 0.00 | 0.00 | 60 | 1027.2 |
| 20260906093623 | 64 | 186 | 4.0 | 13.0 | 0.00 | 0.00 | 0.00 | 62 | 1027.2 |
| 20260906092122 | 64 | 186 | 4.0 | 13.0 | 0.00 | 0.00 | 0.00 | 62 | 1027.3 |
| 20260906090622 | 64 | 192 | 2.0 | 11.0 | 0.00 | 0.00 | 0.00 | 62 | 1027.4 |
| 20260906085121 | 62 | 191 | 4.0 | 11.0 | 0.00 | 0.00 | 0.00 | 63 | 1027.3 |
| 20260906083621 | 62 | 195 | 4.0 | 8.0 | 0.00 | 0.00 | 0.00 | 64 | 1027.4 |
| 20260906082120 | 60 | 182 | 4.0 | 6.0 | 0.00 | 0.00 | 0.00 | 68 | 1027.3 |
| 20260906080620 | 59 | 185 | 4.0 | 6.0 | 0.00 | 0.00 | 0.00 | 69 | 1027.2 |
| 20260906075120 | 59 | 187 | 2.0 | 6.0 | 0.00 | 0.00 | 0.00 | 72 | 1027.2 |
| 20260906073620 | 55 | 191 | 2.0 | 4.0 | 0.00 | 0.00 | 0.00 | 82 | 1027.2 |
| 20260906072120 | 55 | 189 | 2.0 | 2.0 | 0.00 | 0.00 | 0.00 | 84 | 1027.2 |
| 20260906070619 | 53 | 187 | 0.0 | 2.0 | 0.00 | 0.00 | 0.00 | 88 | 1027.1 |
| 20260906065119 | 51 | 145 | 0.0 | 2.0 | 0.00 | 0.00 | 0.00 | 92 | 1027.0 |
| 20260906063619 | 50 | 144 | 2.0 | 2.0 | 0.00 | 0.00 | 0.00 | 94 | 1026.9 |
| 20260906062118 | 48 | 155 | 2.0 | 2.0 | 0.00 | 0.00 | 0.00 | 97 | 1026.9 |
| 20260906060618 | 44 | 141 | 0.0 | 2.0 | 0.00 | 0.00 | 0.00 | 97 | 1026.8 |
| 20260906055117 | 44 | 158 | 0.0 | 2.0 | 0.00 | 0.00 | 0.00 | 96 | 1026.9 |
| 20260906053617 | 42 | 128 | 0.0 | 2.0 | 0.00 | 0.00 | 0.00 | 96 | 1026.7 |
| 20260906052117 | 42 | 134 | 0.0 | 2.0 | 0.00 | 0.00 | 0.00 | 97 | 1026.6 |
| 20260906050616 | 42 | 148 | 0.0 | 2.0 | 0.00 | 0.00 | 0.00 | 96 | 1026.7 |
| 20260906045115 | 44 | 128 | 0.0 | 0.0 | 0.00 | 0.00 | 0.00 | 98 | 1026.6 |
| 20260906043615 | 44 | 132 | 0.0 | 2.0 | 0.00 | 0.00 | 0.00 | 97 | 1026.6 |
| 20260906042114 | 46 | 140 | 2.0 | 2.0 | 0.00 | 0.00 | 0.00 | 96 | 1026.6 |
| 20260906040615 | 46 | 168 | 2.0 | 2.0 | 0.00 | 0.00 | 0.00 | 95 | 1026.6 |
| 20260906035114 | 46 | 158 | 2.0 | 2.0 | 0.00 | 0.00 | 0.00 | 95 | 1026.7 |
| 20260906033614 | 48 | 161 | 2.0 | 4.0 | 0.00 | 0.00 | 0.00 | 96 | 1026.8 |
| 20260906032113 | 46 | 175 | 2.0 | 4.0 | 0.00 | 0.00 | 0.00 | 95 | 1026.9 |
| 20260906030613 | 44 | 177 | 2.0 | 4.0 | 0.00 | 0.00 | 0.00 | 94 | 1027.0 |
| 20260906025112 | 42 | 168 | 2.0 | 2.0 | 0.00 | 0.00 | 0.00 | 94 | 1026.9 |
| 20260906023612 | 44 | 171 | 0.0 | 2.0 | 0.00 | 0.00 | 0.00 | 96 | 1026.7 |
| 20260906022111 | 44 | 157 | 0.0 | 2.0 | 0.00 | 0.00 | 0.00 | 96 | 1026.7 |
| 20260906020611 | 46 | 149 | 2.0 | 2.0 | 0.00 | 0.00 | 0.00 | 96 | 1026.5 |
| 20260906015111 | 44 | 154 | 2.0 | 2.0 | 0.00 | 0.00 | 0.00 | 93 | 1026.5 |
| 20260906013611 | 44 | 136 | 0.0 | 2.0 | 0.00 | 0.00 | 0.00 | 94 | 1026.5 |
| 20260906012110 | 48 | 171 | 0.0 | 2.0 | 0.00 | 0.00 | 0.00 | 95 | 1026.8 |
| 20260906010610 | 46 | 198 | 0.0 | 2.0 | 0.00 | 0.00 | 0.00 | 97 | 1026.7 |
| 20260906005110 | 46 | 184 | 2.0 | 4.0 | 0.00 | 0.00 | 0.00 | 96 | 1026.5 |
| 20260906003609 | 46 | 173 | 2.0 | 4.0 | 0.00 | 0.00 | 0.00 | 94 | 1026.6 |
| 20260906002109 | 46 | 168 | 2.0 | 4.0 | 0.00 | 0.00 | 0.00 | 97 | 1026.5 |
| 20260906000609 | 46 | 186 | 0.0 | 0.0 | 0.00 | 0.00 | 0.00 | 94 | 1026.4 |
| 20260905235108 | 48 | 196 | 2.0 | 2.0 | 0.00 | 0.00 | 0.00 | 93 | 1026.4 |
| 20260905233609 | 48 | 220 | 0.0 | 2.0 | 0.00 | 0.00 | 0.00 | 93 | 1026.3 |
| 20260905232108 | 48 | 220 | 0.0 | 2.0 | 0.00 | 0.00 | 0.00 | 93 | 1026.3 |
| 20260905230608 | 50 | 195 | 0.0 | 2.0 | 0.00 | 0.00 | 0.00 | 93 | 1026.2 |
| 20260905225107 | 50 | 220 | 2.0 | 2.0 | 0.00 | 0.00 | 0.00 | 93 | 1026.0 |
| 20260905223608 | 50 | 238 | 2.0 | 2.0 | 0.00 | 0.00 | 0.00 | 92 | 1025.8 |
| 20260905222107 | 50 | 258 | 2.0 | 2.0 | 0.00 | 0.00 | 0.00 | 88 | 1025.8 |
| 20260905220606 | 51 | 285 | 2.0 | 2.0 | 0.00 | 0.00 | 0.00 | 90 | 1025.7 |
| 20260905215105 | 51 | 251 | 2.0 | 2.0 | 0.00 | 0.00 | 0.00 | 89 | 1025.7 |
| 20260905213605 | 51 | 231 | 2.0 | 4.0 | 0.00 | 0.00 | 0.00 | 88 | 1025.6 |
| 20260905212104 | 51 | 267 | 4.0 | 4.0 | 0.00 | 0.00 | 0.00 | 84 | 1025.6 |
| 20260905210605 | 51 | 245 | 4.0 | 4.0 | 0.00 | 0.00 | 0.00 | 85 | 1025.5 |
| 20260905205105 | 51 | 263 | 2.0 | 4.0 | 0.00 | 0.00 | 0.00 | 84 | 1025.4 |
| 20260905203604 | 51 | 259 | 2.0 | 4.0 | 0.00 | 0.00 | 0.00 | 83 | 1025.3 |
| 20260905202105 | 53 | 265 | 2.0 | 4.0 | 0.00 | 0.00 | 0.00 | 83 | 1025.3 |
| 20260905200605 | 53 | 265 | 4.0 | 6.0 | 0.00 | 0.00 | 0.00 | 78 | 1025.2 |
| 20260905195104 | 55 | 241 | 2.0 | 4.0 | 0.00 | 0.00 | 0.00 | 79 | 1025.0 |